Data No,UTC Date,UTC Time,Latitude,Longitude,Course(deg),Temp(degC),Sal(psu),Fluor Int,Blank
5836,2003/3/5,11:31:08, 20-00.293N,119-59.894E,233.3,24.774,33.9766,228,171
5837,2003/3/5,11:32:08, 20-00.174N,119-59.725E,231.2,24.758,33.9782,231,171
5838,2003/3/5,11:33:08, 20-00.047N,119-59.563E,231.5,24.751,33.9796,235,171
5839,2003/3/5,11:34:08, 19-59.920N,119-59.399E,232.1,24.759,33.9808,231,171
5840,2003/3/5,11:35:08, 19-59.798N,119-59.227E,231.6,24.737,33.9818,235,171
5841,2003/3/5,11:36:08, 19-59.672N,119-59.057E,239.3,24.717,33.9827,237,171
5842,2003/3/5,11:37:08, 19-59.549N,119-58.884E,231.6,24.673,33.984,234,171
5843,2003/3/5,11:38:08, 19-59.423N,119-58.713E,232.1,24.662,33.9861,237,171
5844,2003/3/5,11:39:08, 19-59.299N,119-58.541E,232.4,24.648,33.9872,235,171
5845,2003/3/5,11:40:08, 19-59.178N,119-58.368E,228.8,24.658,33.9881,239,171
5846,2003/3/5,11:41:08, 19-59.049N,119-58.201E,227.2,24.685,33.9885,237,171
5847,2003/3/5,11:42:08, 19-58.923N,119-58.031E,230.7,24.727,33.9889,242,171
5848,2003/3/5,11:43:08, 19-58.789N,119-57.872E,219.2,24.725,33.9887,239,171
5849,2003/3/5,11:44:08, 19-58.628N,119-57.737E,218.8,24.675,33.9888,231,171
5850,2003/3/5,11:45:08, 19-58.471N,119-57.594E,224.2,24.637,33.9891,239,171
5851,2003/3/5,11:46:08, 19-58.314N,119-57.451E,220.9,24.641,33.9901,238,171
5852,2003/3/5,11:47:08, 19-58.156N,119-57.311E,221.6,24.633,33.991,241,171
5853,2003/3/5,11:48:08, 19-57.996N,119-57.172E,222.4,24.651,33.9913,241,171
5855,2003/3/5,11:50:08, 19-57.681N,119-56.885E,217.9,24.738,33.9924,242,171
5856,2003/3/5,11:51:08, 19-57.524N,119-56.742E,214.6,24.726,33.9924,231,171
5857,2003/3/5,11:52:08, 19-57.365N,119-56.601E,225.1,24.716,33.9926,235,171
5859,2003/3/5,11:54:08, 19-57.047N,119-56.322E,219.1,24.722,33.9936,240,171
5860,2003/3/5,11:55:08, 19-56.891N,119-56.178E,221.2,24.777,33.994,236,171
5861,2003/3/5,11:56:08, 19-56.731N,119-56.040E,219.7,24.8,33.9948,237,171
5862,2003/3/5,11:57:08, 19-56.574N,119-55.902E,219.8,24.82,33.9958,239,171
5863,2003/3/5,11:58:08, 19-56.413N,119-55.765E,215.8,24.812,33.9964,233,171
5864,2003/3/5,11:59:08, 19-56.257N,119-55.625E,221,24.824,33.9966,229,171
5865,2003/3/5,12:00:08, 19-56.097N,119-55.490E,216.9,24.827,33.9973,236,171
5866,2003/3/5,12:01:08, 19-55.937N,119-55.354E,221,24.826,33.9978,232,171
5867,2003/3/5,12:02:08, 19-55.780N,119-55.213E,220,24.777,33.9977,236,171
5868,2003/3/5,12:03:08, 19-55.623N,119-55.072E,224.7,24.757,33.9978,230,171
5869,2003/3/5,12:04:08, 19-55.476N,119-54.923E,221.6,24.74,33.9982,233,171
5870,2003/3/5,12:05:08, 19-55.323N,119-54.777E,225.3,24.736,33.9982,231,171
5871,2003/3/5,12:06:08, 19-55.173N,119-54.628E,222.3,24.703,33.9985,239,171
5872,2003/3/5,12:07:08, 19-55.022N,119-54.480E,223.7,24.729,33.9972,233,171
5873,2003/3/5,12:08:08, 19-54.871N,119-54.330E,224.7,24.796,33.9978,233,171
5874,2003/3/5,12:09:08, 19-54.722N,119-54.178E,224.5,24.797,33.9979,233,171
5875,2003/3/5,12:10:08, 19-54.573N,119-54.026E,221.9,24.782,33.9981,236,171
5876,2003/3/5,12:11:08, 19-54.417N,119-53.879E,222.1,24.769,33.9976,237,171
5877,2003/3/5,12:12:08, 19-54.260N,119-53.730E,225.7,24.777,33.9983,235,171
5878,2003/3/5,12:13:08, 19-54.109N,119-53.574E,222.9,24.777,33.9994,231,171
5879,2003/3/5,12:14:08, 19-53.956N,119-53.418E,222.6,24.781,34.0006,233,171
5880,2003/3/5,12:15:08, 19-53.802N,119-53.265E,221.9,24.777,34.0013,229,171
5881,2003/3/5,12:16:08, 19-53.649N,119-53.111E,225.2,24.74,34.0015,233,171
5882,2003/3/5,12:17:08, 19-53.498N,119-52.958E,222.2,24.764,34.0011,238,171
5883,2003/3/5,12:18:08, 19-53.346N,119-52.807E,222.1,24.787,34.0017,234,171
5884,2003/3/5,12:19:08, 19-53.196N,119-52.655E,226.8,24.787,34.0025,237,171
5885,2003/3/5,12:20:08, 19-53.047N,119-52.506E,220.8,24.781,34.0018,236,171
5886,2003/3/5,12:21:08, 19-52.890N,119-52.362E,222.4,24.797,34.0022,239,171
5887,2003/3/5,12:22:08, 19-52.735N,119-52.219E,219.5,24.765,34.0024,236,171
5888,2003/3/5,12:23:08, 19-52.585N,119-52.071E,222.4,24.725,34.0019,238,171
5889,2003/3/5,12:24:08, 19-52.437N,119-51.920E,224.3,24.769,34.0029,237,171
5890,2003/3/5,12:25:08, 19-52.288N,119-51.772E,221.6,24.784,34.0042,239,171
5891,2003/3/5,12:26:08, 19-52.137N,119-51.625E,224.5,24.773,34.0045,235,171
5892,2003/3/5,12:27:08, 19-51.987N,119-51.478E,224,24.759,34.0039,235,171
5893,2003/3/5,12:28:08, 19-51.836N,119-51.332E,221.6,24.741,34.0032,240,171
5894,2003/3/5,12:29:08, 19-51.687N,119-51.185E,220.9,24.697,34.0026,234,171
5895,2003/3/5,12:30:08, 19-51.536N,119-51.037E,221.8,24.694,34.0018,235,171
5896,2003/3/5,12:31:08, 19-51.388N,119-50.886E,223.4,24.671,34.001,237,171
5897,2003/3/5,12:32:08, 19-51.233N,119-50.740E,219.1,24.657,33.9996,237,171
5899,2003/3/5,12:34:08, 19-50.932N,119-50.443E,222.8,24.572,33.9974,244,171
5900,2003/3/5,12:35:08, 19-50.785N,119-50.293E,223.5,24.6,33.9987,244,171
5901,2003/3/5,12:36:08, 19-50.629N,119-50.152E,220.4,24.604,33.999,240,171
5902,2003/3/5,12:37:08, 19-50.481N,119-50.003E,226.3,24.639,33.9987,238,171
5903,2003/3/5,12:38:08, 19-50.331N,119-49.854E,223.8,24.634,33.9983,234,171
5904,2003/3/5,12:39:08, 19-50.182N,119-49.706E,223.8,24.644,33.9982,233,171
5905,2003/3/5,12:40:08, 19-50.023N,119-49.565E,218.6,24.638,33.9977,239,171
5906,2003/3/5,12:41:08, 19-49.873N,119-49.415E,226.6,24.618,33.9978,235,171
5907,2003/3/5,12:42:08, 19-49.724N,119-49.263E,220.9,24.634,33.9976,247,171
5908,2003/3/5,12:43:08, 19-49.573N,119-49.117E,221.6,24.69,33.9976,241,171
5910,2003/3/5,12:45:08, 19-49.267N,119-48.823E,223.2,24.695,33.9964,239,171
5911,2003/3/5,12:46:08, 19-49.117N,119-48.673E,223.5,24.726,33.9961,242,171
5912,2003/3/5,12:47:08, 19-48.966N,119-48.525E,219.5,24.739,33.9947,230,171
5913,2003/3/5,12:48:08, 19-48.812N,119-48.380E,223.5,24.715,33.9944,236,171
5914,2003/3/5,12:49:08, 19-48.660N,119-48.232E,220.2,24.68,33.9948,240,171
5915,2003/3/5,12:50:08, 19-48.510N,119-48.083E,222.1,24.604,33.994,242,171
5916,2003/3/5,12:51:08, 19-48.359N,119-47.938E,220,24.565,33.9952,244,171
5917,2003/3/5,12:52:08, 19-48.207N,119-47.795E,221.9,24.576,33.9958,240,171
5918,2003/3/5,12:53:08, 19-48.057N,119-47.645E,222.2,24.574,33.9954,249,171
5919,2003/3/5,12:54:08, 19-47.906N,119-47.502E,224.4,24.627,33.9953,245,171
5920,2003/3/5,12:55:08, 19-47.752N,119-47.358E,220.9,24.681,33.9946,239,171
5921,2003/3/5,12:56:08, 19-47.601N,119-47.210E,222.3,24.682,33.9925,235,171
5922,2003/3/5,12:57:08, 19-47.449N,119-47.062E,225.1,24.734,33.9919,239,171
5923,2003/3/5,12:58:08, 19-47.296N,119-46.917E,223.1,24.774,33.9908,239,171
5924,2003/3/5,12:59:08, 19-47.146N,119-46.770E,221.6,24.789,33.9894,240,171
5925,2003/3/5,13:00:08, 19-46.996N,119-46.623E,224,24.796,33.9886,241,171
5926,2003/3/5,13:01:08, 19-46.843N,119-46.479E,226.3,24.802,33.9878,240,171
5927,2003/3/5,13:02:08, 19-46.689N,119-46.336E,220.2,24.787,33.987,232,171
5928,2003/3/5,13:03:08, 19-46.538N,119-46.190E,222.2,24.779,33.9867,234,171
5929,2003/3/5,13:04:08, 19-46.387N,119-46.043E,222.9,24.769,33.9868,234,171
5930,2003/3/5,13:05:08, 19-46.240N,119-45.889E,227.3,24.772,33.9864,237,171
5931,2003/3/5,13:06:08, 19-46.093N,119-45.738E,225.3,24.774,33.9864,232,171
5932,2003/3/5,13:07:08, 19-45.947N,119-45.588E,222.6,24.747,33.9852,237,171
5933,2003/3/5,13:08:08, 19-45.799N,119-45.443E,222.1,24.733,33.985,236,171
5934,2003/3/5,13:09:08, 19-45.651N,119-45.296E,225.3,24.728,33.9858,238,171
5935,2003/3/5,13:10:08, 19-45.505N,119-45.145E,227.1,24.698,33.986,238,171
5936,2003/3/5,13:11:08, 19-45.356N,119-45.000E,220,24.704,33.9854,242,171
5937,2003/3/5,13:12:08, 19-45.206N,119-44.855E,222.4,24.68,33.9858,240,171
5938,2003/3/5,13:13:08, 19-45.059N,119-44.704E,224,24.682,33.9859,243,171
5939,2003/3/5,13:14:08, 19-44.913N,119-44.555E,226.3,24.665,33.9864,241,171
5942,2003/3/5,13:17:08, 19-44.467N,119-44.100E,222.6,24.717,33.9867,248,171
5943,2003/3/5,13:18:08, 19-44.316N,119-43.953E,226.8,24.762,33.9859,244,171
5945,2003/3/5,13:20:08, 19-44.018N,119-43.661E,223.3,24.8,33.9819,242,171
5946,2003/3/5,13:21:08, 19-43.867N,119-43.517E,221.6,24.813,33.9798,239,171
5947,2003/3/5,13:22:08, 19-43.713N,119-43.373E,221.5,24.853,33.9771,245,171
5948,2003/3/5,13:23:08, 19-43.558N,119-43.227E,220.8,24.882,33.9748,236,171
5949,2003/3/5,13:24:08, 19-43.406N,119-43.080E,223.7,24.879,33.9711,242,171
5950,2003/3/5,13:25:08, 19-43.255N,119-42.933E,224.5,24.888,33.9677,240,171
5951,2003/3/5,13:26:08, 19-43.104N,119-42.787E,221.6,24.898,33.9642,239,171
5952,2003/3/5,13:27:08, 19-42.952N,119-42.643E,224.1,24.92,33.9605,235,171
5953,2003/3/5,13:28:08, 19-42.804N,119-42.495E,221.4,24.951,33.9555,232,171
5954,2003/3/5,13:29:08, 19-42.655N,119-42.349E,222.5,24.966,33.9499,235,171
5955,2003/3/5,13:30:08, 19-42.507N,119-42.205E,218.8,24.949,33.9424,228,171
5956,2003/3/5,13:31:08, 19-42.354N,119-42.066E,220.3,24.937,33.9369,224,171
5957,2003/3/5,13:32:08, 19-42.203N,119-41.926E,221.8,24.905,33.9331,232,171
5958,2003/3/5,13:33:08, 19-42.051N,119-41.787E,221.9,24.855,33.9307,232,171
5959,2003/3/5,13:34:08, 19-41.903N,119-41.642E,224.1,24.802,33.9298,231,171
5960,2003/3/5,13:35:08, 19-41.757N,119-41.500E,221.7,24.801,33.9298,234,171
5961,2003/3/5,13:36:08, 19-41.605N,119-41.363E,218.4,24.811,33.9282,227,171
5967,2003/3/5,13:42:08, 19-40.721N,119-40.524E,219.9,24.652,33.9224,232,171
5968,2003/3/5,13:43:08, 19-40.574N,119-40.387E,217.9,24.579,33.9249,237,171
5970,2003/3/5,13:45:08, 19-40.280N,119-40.102E,222.2,24.712,33.9208,235,171
5971,2003/3/5,13:46:08, 19-40.129N,119-39.966E,219.1,24.762,33.9143,227,171
5972,2003/3/5,13:47:08, 19-39.988N,119-39.823E,223.2,24.802,33.9099,222,171
5973,2003/3/5,13:48:09, 19-39.840N,119-39.685E,220.5,24.831,33.9064,221,171
5974,2003/3/5,13:49:08, 19-39.698N,119-39.547E,224.6,24.831,33.9055,217,171
5975,2003/3/5,13:50:08, 19-39.557N,119-39.404E,223.4,24.857,33.9044,222,171
5976,2003/3/5,13:51:08, 19-39.414N,119-39.261E,224.4,24.86,33.9042,215,171
5977,2003/3/5,13:52:08, 19-39.271N,119-39.121E,226.3,24.856,33.9038,220,171
5980,2003/3/5,13:55:08, 19-38.844N,119-38.701E,222.9,24.823,33.905,212,171
5982,2003/3/5,13:57:09, 19-38.563N,119-38.428E,222,24.827,33.9062,213,171
5983,2003/3/5,13:58:08, 19-38.419N,119-38.289E,221.8,24.841,33.9072,211,171
5984,2003/3/5,13:59:08, 19-38.265N,119-38.146E,224.8,24.853,33.9085,210,171
5985,2003/3/5,14:00:08, 19-38.127N,119-38.007E,223.9,24.85,33.9087,209,171
5986,2003/3/5,14:01:08, 19-37.988N,119-37.868E,218.8,24.823,33.9084,209,171
5987,2003/3/5,14:02:08, 19-37.845N,119-37.730E,221.2,24.801,33.9079,207,171
5988,2003/3/5,14:03:08, 19-37.706N,119-37.592E,221,24.79,33.9074,210,171
5989,2003/3/5,14:04:08, 19-37.579N,119-37.446E,227.6,24.774,33.9062,214,171
5990,2003/3/5,14:05:08, 19-37.449N,119-37.300E,228.3,24.777,33.9063,207,171
5991,2003/3/5,14:06:08, 19-37.321N,119-37.153E,227.6,24.776,33.9074,210,171
5993,2003/3/5,14:08:08, 19-37.060N,119-36.863E,227.9,24.785,33.9077,206,171
5994,2003/3/5,14:09:08, 19-36.925N,119-36.721E,222.2,24.791,33.9078,202,171
5995,2003/3/5,14:10:08, 19-36.793N,119-36.575E,230.1,24.782,33.9076,209,171
5996,2003/3/5,14:11:08, 19-36.665N,119-36.426E,225.9,24.783,33.908,210,171
5997,2003/3/5,14:12:08, 19-36.535N,119-36.279E,227.5,24.818,33.9084,208,171
5998,2003/3/5,14:13:08, 19-36.406N,119-36.132E,225.6,24.826,33.9081,205,171
5999,2003/3/5,14:14:08, 19-36.274N,119-35.989E,229.1,24.862,33.908,201,171
6000,2003/3/5,14:15:08, 19-36.152N,119-35.836E,227.9,24.859,33.9093,197,171
6001,2003/3/5,14:16:08, 19-36.023N,119-35.691E,223.5,24.876,33.9085,204,171
6002,2003/3/5,14:17:08, 19-35.891N,119-35.545E,227.1,24.855,33.9082,205,171
6003,2003/3/5,14:18:08, 19-35.759N,119-35.396E,226.1,24.849,33.9077,198,171
6004,2003/3/5,14:19:08, 19-35.625N,119-35.248E,226.3,24.857,33.9075,198,171
6005,2003/3/5,14:20:08, 19-35.493N,119-35.097E,225.1,24.837,33.908,201,171
6006,2003/3/5,14:21:08, 19-35.354N,119-34.956E,221.6,24.836,33.9081,203,171
6007,2003/3/5,14:22:08, 19-35.217N,119-34.815E,227.3,24.821,33.908,204,171
6008,2003/3/5,14:23:08, 19-35.082N,119-34.665E,225.2,24.801,33.9071,195,171
6009,2003/3/5,14:24:08, 19-34.947N,119-34.519E,225.1,24.797,33.9067,199,171
6010,2003/3/5,14:25:08, 19-34.812N,119-34.371E,225.2,24.779,33.9068,200,171
6011,2003/3/5,14:26:08, 19-34.673N,119-34.226E,224.9,24.805,33.9066,197,171
6012,2003/3/5,14:27:08, 19-34.536N,119-34.079E,224.6,24.823,33.9071,195,171
6013,2003/3/5,14:28:08, 19-34.402N,119-33.932E,224.4,24.807,33.9082,194,171
6014,2003/3/5,14:29:08, 19-34.260N,119-33.790E,226.7,24.803,33.91,200,171
6015,2003/3/5,14:30:08, 19-34.123N,119-33.640E,223.4,24.797,33.9093,198,171
6016,2003/3/5,14:31:08, 19-33.981N,119-33.495E,228.5,24.778,33.909,199,171
6017,2003/3/5,14:32:08, 19-33.843N,119-33.347E,231.2,24.759,33.9074,197,171
6018,2003/3/5,14:33:08, 19-33.706N,119-33.195E,226.2,24.795,33.9077,197,171
6019,2003/3/5,14:34:08, 19-33.567N,119-33.043E,226.5,24.801,33.9081,197,171
6020,2003/3/5,14:35:08, 19-33.429N,119-32.893E,224.7,24.843,33.9108,199,171
6021,2003/3/5,14:36:08, 19-33.289N,119-32.744E,223.6,24.873,33.9142,194,171
6022,2003/3/5,14:37:08, 19-33.144N,119-32.600E,219.6,24.888,33.9164,195,171
6023,2003/3/5,14:38:08, 19-33.005N,119-32.447E,224.8,24.85,33.9162,194,171
6024,2003/3/5,14:39:08, 19-32.867N,119-32.292E,225.8,24.849,33.9166,199,171
6025,2003/3/5,14:40:08, 19-32.729N,119-32.137E,227.5,24.857,33.916,201,171
6026,2003/3/5,14:41:08, 19-32.585N,119-31.988E,220.8,24.874,33.916,197,171
6027,2003/3/5,14:42:09, 19-32.434N,119-31.843E,223,24.874,33.917,200,171
6028,2003/3/5,14:43:08, 19-32.289N,119-31.692E,223.4,24.87,33.9171,196,171
6029,2003/3/5,14:44:08, 19-32.145N,119-31.539E,224.4,24.864,33.9169,198,171
6030,2003/3/5,14:45:09, 19-32.001N,119-31.390E,217,24.851,33.9164,196,171
6031,2003/3/5,14:46:08, 19-31.850N,119-31.244E,224.9,24.861,33.9161,199,171
6032,2003/3/5,14:47:08, 19-31.706N,119-31.090E,224.5,24.87,33.9155,193,171
6033,2003/3/5,14:48:08, 19-31.563N,119-30.934E,225.9,24.847,33.9147,198,171
6034,2003/3/5,14:49:08, 19-31.420N,119-30.780E,221.9,24.838,33.9139,197,171
6035,2003/3/5,14:50:08, 19-31.271N,119-30.633E,220.2,24.845,33.9139,199,171
6036,2003/3/5,14:51:09, 19-31.121N,119-30.484E,222.4,24.855,33.9132,199,171
6037,2003/3/5,14:52:08, 19-30.976N,119-30.329E,223.5,24.841,33.9123,202,171
6038,2003/3/5,14:53:08, 19-30.832N,119-30.170E,224.7,24.869,33.9119,201,171
6039,2003/3/5,14:54:09, 19-30.684N,119-30.017E,223.1,24.877,33.911,198,171
6040,2003/3/5,14:55:08, 19-30.535N,119-29.863E,224.6,24.895,33.9094,198,171
6041,2003/3/5,14:56:08, 19-30.391N,119-29.704E,220.9,24.886,33.908,197,171
6042,2003/3/5,14:57:08, 19-30.241N,119-29.553E,223.9,24.888,33.9073,194,171
6043,2003/3/5,14:58:09, 19-30.100N,119-29.396E,228,24.878,33.9068,194,171
6044,2003/3/5,14:59:08, 19-29.955N,119-29.240E,231.2,24.907,33.9059,196,171
6045,2003/3/5,15:00:08, 19-29.817N,119-29.082E,225,24.909,33.9049,194,171
6046,2003/3/5,15:01:08, 19-29.671N,119-28.932E,221.3,24.918,33.9038,192,171
6047,2003/3/5,15:02:09, 19-29.524N,119-28.780E,222.6,24.94,33.9038,195,171
6048,2003/3/5,15:03:09, 19-29.381N,119-28.626E,227.6,24.962,33.9025,192,171
6049,2003/3/5,15:04:08, 19-29.235N,119-28.476E,220.7,24.98,33.9011,195,171
6050,2003/3/5,15:05:08, 19-29.090N,119-28.327E,224.8,24.986,33.9003,193,171
6051,2003/3/5,15:06:08, 19-28.945N,119-28.180E,227.9,24.983,33.8991,193,171
6052,2003/3/5,15:07:09, 19-28.802N,119-28.033E,221.3,24.999,33.8976,194,171
6053,2003/3/5,15:08:08, 19-28.658N,119-27.890E,226,25.011,33.896,192,171
6054,2003/3/5,15:09:08, 19-28.522N,119-27.740E,223.1,25.021,33.894,193,171
6055,2003/3/5,15:10:08, 19-28.378N,119-27.600E,223.2,25.063,33.8925,191,171
6056,2003/3/5,15:11:09, 19-28.241N,119-27.450E,226.6,25.065,33.8906,190,171
6057,2003/3/5,15:12:08, 19-28.101N,119-27.302E,226.2,25.08,33.8893,192,171
6058,2003/3/5,15:13:08, 19-27.959N,119-27.156E,223.6,25.086,33.888,189,171
6059,2003/3/5,15:14:08, 19-27.820N,119-27.007E,224.5,25.085,33.887,189,171
6060,2003/3/5,15:15:09, 19-27.679N,119-26.859E,225.9,25.095,33.8865,190,171
6061,2003/3/5,15:16:09, 19-27.537N,119-26.709E,221.4,25.106,33.8852,189,171
6062,2003/3/5,15:17:08, 19-27.391N,119-26.562E,227.9,25.134,33.8846,190,171
6063,2003/3/5,15:18:08, 19-27.250N,119-26.410E,225.3,25.156,33.8835,188,171
6064,2003/3/5,15:19:09, 19-27.109N,119-26.255E,227.1,25.191,33.8827,190,171
6065,2003/3/5,15:20:09, 19-26.967N,119-26.102E,222.1,25.219,33.8821,192,171
6066,2003/3/5,15:21:08, 19-26.819N,119-25.952E,218.5,25.226,33.8817,191,171
6067,2003/3/5,15:22:08, 19-26.669N,119-25.805E,224.9,25.204,33.8806,188,171
6068,2003/3/5,15:23:09, 19-26.522N,119-25.654E,226.8,25.191,33.8782,186,171
6069,2003/3/5,15:24:09, 19-26.374N,119-25.504E,223.4,25.193,33.877,188,171
6070,2003/3/5,15:25:08, 19-26.227N,119-25.354E,222.7,25.164,33.8752,188,171
6071,2003/3/5,15:26:08, 19-26.078N,119-25.206E,224,25.15,33.8738,189,171
6072,2003/3/5,15:27:09, 19-25.931N,119-25.057E,224.7,25.14,33.8719,186,171
6073,2003/3/5,15:28:08, 19-25.783N,119-24.909E,224,25.158,33.8709,189,171
6074,2003/3/5,15:29:08, 19-25.638N,119-24.759E,223.7,25.137,33.8707,185,171
6075,2003/3/5,15:30:09, 19-25.485N,119-24.617E,221.4,25.127,33.8694,188,171
6076,2003/3/5,15:31:09, 19-25.333N,119-24.471E,226.1,25.107,33.8686,184,171
6077,2003/3/5,15:32:08, 19-25.186N,119-24.322E,226.1,25.093,33.8675,183,171
6078,2003/3/5,15:33:08, 19-25.038N,119-24.173E,221.8,25.066,33.8668,189,171
6079,2003/3/5,15:34:09, 19-24.889N,119-24.025E,223.7,25.069,33.8659,189,171
6080,2003/3/5,15:35:09, 19-24.741N,119-23.875E,226.2,25.034,33.8647,192,171
6081,2003/3/5,15:36:09, 19-24.587N,119-23.726E,224.8,25.036,33.8636,189,171
6082,2003/3/5,15:37:08, 19-24.444N,119-23.575E,226.5,25.024,33.863,183,171
6083,2003/3/5,15:38:09, 19-24.302N,119-23.418E,227.1,25.014,33.8627,184,171
6084,2003/3/5,15:39:09, 19-24.163N,119-23.259E,231.6,25.015,33.862,192,171
6085,2003/3/5,15:40:08, 19-24.015N,119-23.103E,224.6,25.029,33.862,186,171
6086,2003/3/5,15:41:08, 19-23.865N,119-22.947E,224.5,25.021,33.863,187,171
6087,2003/3/5,15:42:09, 19-23.722N,119-22.783E,225.8,25.004,33.8629,188,171
6088,2003/3/5,15:43:09, 19-23.575N,119-22.622E,225.5,24.97,33.8633,188,171
6089,2003/3/5,15:44:09, 19-23.419N,119-22.468E,222.9,24.956,33.8635,186,171
6090,2003/3/5,15:45:08, 19-23.277N,119-22.310E,228,24.905,33.8641,188,171
6091,2003/3/5,15:46:09, 19-23.133N,119-22.153E,224.3,24.882,33.8643,193,171
6092,2003/3/5,15:47:08, 19-22.988N,119-21.993E,227,24.849,33.8642,   ----,171
6093,2003/3/5,15:48:09, 19-22.842N,119-21.834E,223.1,24.831,33.8654,239,171
6094,2003/3/5,15:49:09, 19-22.692N,119-21.678E,230.9,24.825,33.8691,228,171
6095,2003/3/5,15:50:08, 19-22.550N,119-21.512E,225.2,24.801,33.8759,262,171
6096,2003/3/5,15:51:08, 19-22.405N,119-21.353E,225.1,24.809,33.8813,   ----,171
6097,2003/3/5,15:52:09, 19-22.261N,119-21.193E,226.8,24.778,33.8856,201,171
6098,2003/3/5,15:53:09, 19-22.114N,119-21.030E,224.7,24.759,33.8886,187,171
6099,2003/3/5,15:54:09, 19-21.960N,119-20.872E,222.6,24.725,33.8912,192,171
6100,2003/3/5,15:55:08, 19-21.819N,119-20.712E,226.8,24.676,33.8921,201,171
6101,2003/3/5,15:56:09, 19-21.675N,119-20.550E,224.2,24.666,33.8932,193,171
6102,2003/3/5,15:57:09, 19-21.521N,119-20.391E,225,24.664,33.8957,200,171
6103,2003/3/5,15:58:08, 19-21.377N,119-20.238E,225.4,24.634,33.8977,210,171
6104,2003/3/5,15:59:09, 19-21.224N,119-20.086E,222.8,24.622,33.9009,172,171
6105,2003/3/5,16:00:09, 19-21.078N,119-19.932E,226.6,24.605,33.9049,   ----,171
6106,2003/3/5,16:01:09, 19-20.931N,119-19.775E,226.3,24.575,33.906,   ----,171
6107,2003/3/5,16:02:08, 19-20.793N,119-19.624E,225.9,24.558,33.9075,   ----,171
6108,2003/3/5,16:03:09, 19-20.650N,119-19.472E,225.6,24.559,33.9089,186,171
6109,2003/3/5,16:04:09, 19-20.506N,119-19.319E,226.6,24.539,33.9086,197,171
6110,2003/3/5,16:05:09, 19-20.353N,119-19.171E,224.5,24.537,33.9096,235,171
6111,2003/3/5,16:06:08, 19-20.205N,119-19.014E,226.5,24.522,33.9103,200,171
6112,2003/3/5,16:07:09, 19-20.058N,119-18.858E,225.2,24.518,33.9113,219,171
6113,2003/3/5,16:08:09, 19-19.910N,119-18.704E,227.7,24.528,33.9135,217,171
6114,2003/3/5,16:09:09, 19-19.763N,119-18.547E,226.3,24.51,33.9166,215,171
6115,2003/3/5,16:10:09, 19-19.612N,119-18.387E,221.8,24.483,33.9174,212,171
6116,2003/3/5,16:11:09, 19-19.464N,119-18.234E,225.2,24.502,33.9178,239,171
6117,2003/3/5,16:12:09, 19-19.315N,119-18.075E,220.8,24.481,33.9193,210,171
6118,2003/3/5,16:13:08, 19-19.175N,119-17.917E,226.8,24.48,33.9203,219,171
6119,2003/3/5,16:14:09, 19-19.028N,119-17.761E,224.8,24.469,33.9216,218,171
6120,2003/3/5,16:15:09, 19-18.886N,119-17.599E,221.9,24.455,33.9227,226,171
6121,2003/3/5,16:16:09, 19-18.733N,119-17.438E,224.1,24.432,33.9246,225,171
6122,2003/3/5,16:17:08, 19-18.588N,119-17.278E,227.6,24.454,33.9264,218,171
6123,2003/3/5,16:18:09, 19-18.443N,119-17.114E,227.4,24.456,33.9278,229,171
6124,2003/3/5,16:19:09, 19-18.295N,119-16.954E,224.1,24.461,33.9307,222,171
6125,2003/3/5,16:20:09, 19-18.146N,119-16.788E,229.9,24.498,33.9333,225,171
6126,2003/3/5,16:21:08, 19-18.007N,119-16.624E,229.4,24.492,33.9354,221,171
6127,2003/3/5,16:22:09, 19-17.865N,119-16.459E,226.6,24.51,33.9368,220,171
6128,2003/3/5,16:23:09, 19-17.712N,119-16.304E,224.8,24.501,33.9374,222,171
6129,2003/3/5,16:24:09, 19-17.560N,119-16.145E,227,24.513,33.9382,216,171
6130,2003/3/5,16:25:09, 19-17.411N,119-15.977E,225.9,24.602,33.9372,218,171
6131,2003/3/5,16:26:09, 19-17.270N,119-15.815E,227.7,24.694,33.9326,210,171
6132,2003/3/5,16:27:09, 19-17.121N,119-15.653E,222.5,24.819,33.925,211,171
6133,2003/3/5,16:28:09, 19-16.971N,119-15.494E,228.2,24.94,33.9125,209,171
6134,2003/3/5,16:29:09, 19-16.818N,119-15.333E,224.4,25.008,33.8963,203,171
6135,2003/3/5,16:30:09, 19-16.671N,119-15.172E,225.8,25.028,33.8852,197,171
6136,2003/3/5,16:31:09, 19-16.527N,119-15.013E,227.1,25.021,33.8857,194,171
6137,2003/3/5,16:32:09, 19-16.374N,119-14.861E,222,25.006,33.8884,190,171
6138,2003/3/5,16:33:09, 19-16.224N,119-14.697E,227.5,24.977,33.8893,197,171
6139,2003/3/5,16:34:09, 19-16.073N,119-14.547E,221.6,24.975,33.8888,   ----,171
6140,2003/3/5,16:35:09, 19-15.912N,119-14.391E,224.6,24.948,33.8912,244,171
6141,2003/3/5,16:36:09, 19-15.747N,119-14.241E,222.3,24.927,33.896,250,171
6142,2003/3/5,16:37:08, 19-15.585N,119-14.088E,223.7,24.913,33.897,   ----,171
6143,2003/3/5,16:38:09, 19-15.420N,119-13.936E,219.3,24.902,33.8978,207,171
6144,2003/3/5,16:39:09, 19-15.251N,119-13.780E,220.4,24.894,33.9004,204,171
6145,2003/3/5,16:40:09, 19-15.087N,119-13.629E,220.7,24.892,33.9014,175,171
6146,2003/3/5,16:41:09, 19-14.923N,119-13.477E,223.2,24.879,33.905,189,171
6147,2003/3/5,16:42:09, 19-14.757N,119-13.323E,218.9,24.872,33.9066,242,171
6148,2003/3/5,16:43:09, 19-14.589N,119-13.178E,223.8,24.877,33.909,   ----,171
6149,2003/3/5,16:44:09, 19-14.430N,119-13.033E,217,24.864,33.9095,245,171
6150,2003/3/5,16:45:09, 19-14.269N,119-12.884E,221.6,24.857,33.9098,189,171
6151,2003/3/5,16:46:09, 19-14.105N,119-12.736E,221.1,24.861,33.9108,241,171
6152,2003/3/5,16:47:09, 19-13.945N,119-12.589E,220.1,24.863,33.9131,   ----,171
6153,2003/3/5,16:48:09, 19-13.790N,119-12.439E,218.3,24.904,33.9148,255,171
6154,2003/3/5,16:49:09, 19-13.632N,119-12.293E,220.3,24.867,33.9156,209,171
6155,2003/3/5,16:50:09, 19-13.474N,119-12.150E,231.3,24.795,33.9159,249,171
6156,2003/3/5,16:51:09, 19-13.317N,119-12.004E,223.4,24.811,33.9145,199,171
6157,2003/3/5,16:52:09, 19-13.167N,119-11.857E,222.6,24.854,33.9156,204,171
6158,2003/3/5,16:53:09, 19-13.010N,119-11.711E,220.8,24.864,33.9166,205,171
6159,2003/3/5,16:54:09, 19-12.861N,119-11.550E,226.9,24.807,33.9173,206,171
6160,2003/3/5,16:55:09, 19-12.712N,119-11.394E,225.5,24.776,33.9164,197,171
6161,2003/3/5,16:56:09, 19-12.566N,119-11.242E,224.7,24.751,33.9162,213,171
6162,2003/3/5,16:57:09, 19-12.413N,119-11.084E,225.6,24.726,33.9157,200,171
6163,2003/3/5,16:58:09, 19-12.265N,119-10.931E,225.4,24.711,33.9148,199,171